Weather in Voznesenskiy

Russia / Mari El Republic     56°36′23″N   47°58′49″E
temp.,
°C
wind,
m/s
gust,
m/s
humid.,
%
clouds,
%
prec.,
mm/h
press.,
hPa
HPBL,
m
25 february, thu
thu2500:00−24ssw129590 0.0 103420
03:00−24s239889 0.0 103346
06:00−22sse3796100 0.0 1029232
09:00−20sse5994100 0.0 1026308
12:00−17sse61295100 0.6 1022465
15:00−15sse61195100 1.7 1020623
18:00−16sse51095100 1.1 1018604
21:00−16se41093100 1.3 1017440
26 february, fri
fri2600:00−17se4995100 0.1 1016372
03:00−17se3895100 0.1 1017381
06:00−18se3996100 0.1 1015298
09:00−17se4895100 0.1 1016338
12:00−13se4893100 0.1 1014489
15:00−13se51193100 0.1 1012511
18:00−13se71594100 0.3 1006544
21:00−11se71594100 3.4 1002617
27 february, sat
sat2700:00−11se61294100 3.9 998487
03:00−10se4994100 4.4 997305
06:00−11ese3795100 0.1 996225
09:00−10e369599 0.4 996240
12:00−7e469598 0.2 997334
15:00−7ene479599 0.6 999420
18:00−10ne499399 0.4 1000382
21:00−13nne499495 0.4 1002281
28 february, sun
sun2800:00−13nne499490 0.1 1004300
03:00−14n499493 0.3 1006350
06:00−16n499499 0.1 1007339
09:00−15n4894100 0.2 1009392
12:00−14n4793100 0.1 1011415
15:00−14n4891100 0.1 1012485
18:00−17n31094100 0.0 1014300
21:00−20n379870 0.0 1017141
1 march, mon
mon100:00−22n33980 0.0 101874
03:00−23n36980 0.0 1020110
06:00−24n34980 0.0 102281
09:00−19n24960 0.0 1023190
12:00−13nw238940 0.0 1023323
15:00−11wnw249156 0.0 1022397
18:00−14wsw369786 0.0 1021124
21:00−14sw399787 0.0 1019227